Location: Burbank
(38.7788°N, 114.0429°W)
Time: 20:47:14
(UTC+00:00)

Vanguard 2 - Pass Details

Date: 18 May 2026
Orbit: 553 x 2894 km, 32.9° (Epoch: 6 June)

Event Time Altitude Azimuth Distance (km) Brightness Sun altitude
Rises 10:47:17 0° 262° (W) 6,516 - -16.0°
Exits shadow 10:50:15 - 261° (W) 5,879 11.5 -15.5°
Reaches altitude 10° 10:51:26 10° 261° (W) 5,624 11.4 -15.4°
Maximum altitude 11:09:03 71° 182° (S) 2,873 10.2 -12.7°
Drops below altitude 10° 11:23:29 10° 102° (ESE) 4,724 12.2 -10.5°
Sets 11:26:38 0° 100° (E) 5,467 12.6 -10.0°
